Theta_e
293 292 290 289 291 293 294 291 292 293 295 296 296 296 296 297 298 298 298 299 298 297 297 298 297 297 298 301 304 306 307 308 308 309 309 309 309 310 310 310 310 310 310 310 310 310 311 311 311 311 311 311 311 311 311 311 311 312 312 312 312 312 312 312 312 312 312 312 312 312 311 311 311 310 310 309 309 309 308 308 307 308 308 308 309 309
293 292 291 289 290 292 294 291 290 292 294 295 295 296 296 296 297 298 299 299 298 298 298 298 297 296 295 298 302 305 306 307 308 308 309 309 309 309 309 309 309 309 309 309 310 310 310 310 310 310 310 310 310 310 310 310 311 311 311 311 311 311 311 311 311 311 311 311 311 311 310 309 309 309 308 308 308 308 307 307 307 307 307 308 308 308
294 293 293 290 289 290 293 292 290 290 292 293 295 295 294 295 296 297 298 298 298 297 297 297 297 296 295 297 301 304 305 307 307 308 308 308 308 308 308 309 308 309 309 309 309 309 309 309 309 310 309 309 309 309 309 309 309 309 309 310 310 309 309 309 309 309 309 309 309 308 308 307 307 307 307 307 307 307 307 307 307 307 307 307 308 308
294 294 294 292 290 289 292 293 292 290 292 293 293 293 292 294 295 297 297 295 295 295 295 294 294 295 296 297 299 303 305 306 306 307 307 308 307 307 308 308 308 308 308 308 308 308 309 309 309 309 309 309 309 309 309 309 308 308 308 308 308 308 308 307 307 307 307 307 307 307 306 306 306 306 306 306 306 306 306 306 306 306 307 307 307 308
294 294 294 294 293 292 291 291 291 291 292 292 292 292 292 293 295 295 295 293 293 293 293 292 293 294 296 297 299 302 304 305 306 306 306 307 307 307 307 307 307 307 307 307 307 308 308 308 308 308 308 308 308 308 308 308 308 308 307 307 307 307 307 307 307 306 306 306 306 305 305 305 305 304 305 305 305 305 305 305 305 305 306 307 307 307
295 295 295 294 294 294 293 291 291 292 291 291 291 291 292 292 293 294 294 293 293 293 293 293 293 293 295 296 299 301 303 304 305 305 306 306 306 306 306 306 306 307 307 307 307 307 307 308 308 308 308 307 307 307 307 307 307 307 307 307 307 306 306 306 306 306 306 305 305 304 304 304 304 303 303 304 304 304 304 304 305 305 305 306 306 307
295 295 295 293 293 293 292 290 290 291 291 292 292 291 291 290 291 292 293 293 293 293 293 293 292 292 293 295 298 300 302 303 303 304 304 305 305 305 305 305 305 306 306 306 306 307 307 307 307 307 307 307 307 307 307 307 307 307 306 306 306 306 306 306 306 305 305 305 304 304 304 303 303 303 303 303 303 303 304 304 304 304 305 305 305 306
295 295 294 294 293 292 292 290 290 290 291 293 293 292 292 291 291 291 289 289 289 289 291 291 291 291 292 292 295 297 298 299 299 300 301 302 302 303 303 303 304 304 305 305 306 306 306 306 307 307 307 307 307 306 306 306 306 306 306 305 305 305 305 305 305 305 304 304 304 303 303 303 303 303 302 302 302 302 303 303 303 303 303 304 304 305
294 294 294 294 293 293 293 292 290 289 289 291 293 293 294 293 293 292 290 289 287 287 289 291 292 292 291 290 291 293 296 296 297 297 298 298 298 299 300 301 302 303 304 304 305 305 306 306 306 306 306 306 306 305 305 305 305 305 305 305 305 304 305 304 304 304 304 303 303 303 303 303 303 302 302 302 302 302 302 302 302 303 303 303 304 304
294 294 294 294 294 294 293 294 291 288 284 287 289 290 291 293 293 293 292 292 290 288 288 289 291 292 292 290 289 290 294 296 297 299 299 299 299 299 300 301 301 302 303 303 304 304 304 305 305 305 305 305 305 304 304 304 304 304 304 304 304 304 304 304 303 303 303 303 303 303 303 302 302 302 302 302 302 301 301 301 301 301 302 302 302 303
293 293 293 293 293 293 292 292 291 287 282 284 285 286 286 288 290 292 293 293 292 290 288 288 289 290 291 291 290 290 292 292 293 296 298 299 299 300 300 300 300 301 301 302 303 303 303 304 304 304 304 304 304 303 303 303 303 303 303 303 303 303 303 303 303 302 302 302 302 302 302 302 302 302 302 301 301 301 300 300 300 300 300 301 301 302
292 292 292 293 292 292 290 289 288 287 285 286 287 287 286 285 286 288 291 292 293 292 291 289 288 289 290 291 291 292 291 290 291 291 292 294 295 296 296 297 298 298 299 300 301 302 302 303 303 303 302 302 302 302 302 302 302 302 302 303 303 302 302 302 302 302 302 302 302 302 301 301 301 301 301 301 300 300 299 299 299 299 299 300 300 301
292 292 291 291 291 291 291 289 289 288 287 288 289 290 291 287 285 286 290 291 292 292 292 291 289 288 288 289 290 290 290 290 290 290 290 290 291 291 291 291 292 293 294 294 295 297 299 300 301 301 301 301 301 301 301 301 301 302 302 302 302 302 302 301 301 301 301 301 301 301 301 301 301 301 301 300 300 299 299 299 299 299 299 299 299 300
291 290 290 291 291 290 290 290 291 290 289 289 290 291 292 288 286 285 287 290 290 290 290 289 290 289 288 287 287 289 289 290 290 290 290 290 289 289 289 289 289 289 289 289 290 292 296 297 297 297 299 299 299 299 299 300 301 301 301 301 301 301 301 301 301 301 301 300 300 300 300 300 300 300 300 300 299 299 298 298 298 298 298 298 298 299
290 290 290 290 290 290 290 290 290 290 290 290 289 289 289 288 286 286 287 289 289 289 288 289 290 290 290 289 287 287 289 289 289 289 289 289 289 288 287 288 288 288 288 288 289 291 293 294 293 293 294 294 295 296 297 298 299 300 300 300 300 300 300 300 300 300 300 300 300 300 300 300 300 300 299 299 298 298 298 298 298 298 298 298 298 298
290 290 290 290 290 290 290 290 290 290 290 289 288 287 288 287 287 287 287 289 289 288 287 287 289 290 290 288 285 285 287 287 287 287 287 288 288 286 284 286 287 287 287 288 288 289 289 290 290 290 291 292 294 295 296 297 298 298 298 298 299 299 299 299 299 299 299 299 299 299 299 299 299 299 298 298 298 298 297 297 297 297 297 297 297 297
290 290 291 291 291 291 291 291 291 290 290 288 287 286 287 288 288 287 287 288 288 288 289 289 290 290 290 289 287 285 284 285 284 283 284 287 286 283 281 284 287 287 287 288 289 289 287 288 289 289 290 292 294 295 296 296 297 297 298 298 298 298 298 298 298 298 298 298 299 299 299 298 298 298 298 297 297 297 297 297 297 296 296 297 297 297
291 291 291 292 292 292 292 292 292 292 290 289 287 286 286 287 288 288 288 289 289 290 290 290 290 290 289 290 287 284 281 283 283 282 283 286 286 283 278 281 284 286 286 288 288 288 288 288 288 288 290 293 295 295 296 296 297 297 297 297 297 298 298 298 298 298 298 298 298 298 298 298 298 298 297 297 297 297 296 296 296 296 296 296 297 297
293 293 293 292 293 293 293 293 293 292 291 290 289 288 288 288 288 289 290 291 291 291 291 291 291 291 290 291 288 284 280 282 283 284 284 286 287 284 277 280 283 285 285 287 288 288 287 287 289 291 293 294 295 295 296 296 296 297 297 297 297 297 298 298 298 298 298 298 298 298 298 298 297 297 297 297 296 296 296 296 296 296 296 296 296 296
294 295 295 294 294 294 294 294 294 293 292 293 292 292 291 290 290 290 291 291 291 292 292 291 291 291 291 292 289 285 280 282 283 284 285 286 286 284 278 280 282 283 284 287 287 287 286 286 287 289 292 293 295 295 296 296 297 297 297 297 297 297 297 297 297 297 297 297 298 298 297 297 297 297 297 296 296 296 296 295 295 295 296 296 296 296
294 295 296 296 296 295 295 295 294 294 295 294 294 293 292 291 290 290 291 291 291 291 291 291 291 291 292 292 291 287 280 283 285 285 287 288 287 284 279 279 281 283 285 287 287 286 286 285 285 286 290 292 294 295 296 296 296 297 297 297 297 297 297 297 297 297 297 297 297 297 297 297 297 297 296 296 296 296 295 295 295 295 296 296 296 295
294 294 295 296 296 297 297 296 296 297 297 295 294 293 292 292 291 291 292 291 291 291 291 291 291 292 292 292 291 288 283 287 288 288 290 290 289 286 280 279 280 282 285 287 287 286 284 283 284 286 290 292 294 295 295 296 296 296 297 297 297 297 297 297 297 297 297 297 297 297 297 297 297 296 296 296 296 295 295 295 295 295 296 295 295 295
294 294 295 296 296 297 297 298 298 298 298 296 296 295 295 294 293 292 293 293 292 292 292 292 292 292 290 291 290 286 283 285 287 288 290 290 290 288 280 278 279 281 286 287 286 284 283 282 283 286 289 292 293 294 295 295 296 296 296 297 297 297 297 297 297 297 297 297 297 297 297 297 297 296 296 296 295 295 295 295 295 295 295 295 294 294
294 294 295 295 296 296 297 297 297 297 297 297 296 296 296 295 295 294 294 294 294 294 294 293 292 291 290 290 289 287 283 283 285 286 289 289 290 288 283 279 280 283 286 286 285 284 283 282 283 284 287 290 292 293 294 295 295 296 296 296 296 296 297 297 297 296 296 296 297 297 297 296 296 296 296 296 295 295 294 295 295 295 295 294 294 294
295 295 295 296 296 297 297 297 298 297 297 296 296 295 295 296 296 296 295 294 294 293 293 292 292 291 290 290 290 288 283 283 284 286 288 289 289 288 284 281 282 285 287 284 282 281 281 282 282 283 283 286 289 292 293 294 295 295 296 296 296 296 296 296 296 296 296 296 296 296 296 296 296 296 296 295 295 294 294 295 295 295 294 294 293 293
297 297 297 297 298 299 299 299 299 300 299 299 298 297 296 296 296 295 294 293 292 291 291 290 290 290 290 289 290 289 284 281 283 285 288 289 289 287 285 282 282 284 286 283 281 281 281 282 282 282 282 283 287 290 292 293 294 294 295 295 295 296 296 296 296 296 296 296 296 296 296 296 296 296 295 295 295 294 294 294 295 295 294 294 293 293
298 299 299 299 299 299 299 300 300 300 300 300 300 299 298 297 295 294 293 291 291 291 290 290 290 290 290 290 291 290 288 284 283 284 287 288 289 288 286 283 282 283 285 284 282 282 284 285 285 284 284 283 284 287 290 292 292 293 294 294 294 295 295 295 295 295 295 295 295 295 295 295 295 295 295 295 294 294 294 295 295 294 294 293 293 292
298 298 298 298 298 299 299 299 300 300 300 300 300 300 299 297 295 293 293 291 291 291 291 290 290 289 290 290 290 290 290 287 286 285 285 287 287 287 285 283 282 282 284 284 283 283 284 285 284 284 284 283 283 284 287 290 291 292 293 293 293 294 294 294 294 294 294 294 294 295 295 295 295 295 294 294 294 294 294 294 295 294 294 292 291 290
297 297 297 298 298 299 299 299 299 300 300 300 300 300 299 297 295 294 294 293 293 292 291 291 290 290 290 290 291 291 290 289 287 286 286 286 286 286 284 283 282 282 284 284 283 281 280 280 279 278 279 282 282 282 283 286 288 289 290 291 292 292 293 293 293 293 294 294 294 294 294 294 294 294 294 293 293 294 294 294 294 294 293 290 288 287
296 296 297 297 298 298 298 297 298 298 299 299 300 299 299 298 296 296 296 295 294 293 292 292 291 291 291 290 290 290 290 289 287 286 287 287 286 284 282 282 282 282 285 284 283 282 280 279 277 276 276 278 279 279 279 280 282 284 285 287 289 290 292 292 293 293 293 293 293 293 293 293 293 293 293 293 293 293 294 294 294 293 290 287 285 284
294 295 295 296 296 296 296 296 296 297 298 298 299 299 298 298 297 297 296 296 295 294 293 292 292 292 292 291 290 289 290 287 286 287 287 287 286 284 282 282 282 282 285 285 284 283 283 280 278 277 276 276 277 277 278 279 280 280 281 283 284 287 290 291 291 292 292 292 292 292 292 292 292 292 292 293 293 293 293 294 294 292 288 285 283 282
293 293 294 294 294 295 295 296 296 296 297 297 297 298 298 298 297 297 297 296 296 295 294 293 293 292 292 291 290 290 291 285 285 287 288 287 286 285 283 284 283 283 285 286 285 284 283 282 280 277 275 275 276 277 279 280 280 279 280 281 282 283 288 289 290 290 290 290 290 291 291 291 291 292 292 292 293 293 293 293 293 291 287 283 282 281
292 292 292 293 293 294 294 295 295 295 296 296 296 296 297 297 297 297 297 297 296 296 294 293 293 292 292 292 291 292 293 289 287 288 289 287 285 284 283 283 283 284 284 284 283 282 282 282 280 277 276 275 276 276 278 280 280 280 279 280 280 281 285 286 286 286 287 288 288 289 290 290 290 291 291 291 292 292 292 292 292 291 288 284 282 282
291 291 291 292 292 292 293 293 294 295 295 295 295 296 296 296 296 297 297 297 297 296 295 294 293 292 292 291 291 291 292 291 290 289 290 288 286 283 282 282 283 283 283 282 281 280 279 278 278 279 279 277 277 277 277 278 280 280 278 279 279 279 281 283 283 283 284 285 285 285 286 286 287 289 289 290 290 291 291 291 291 291 290 286 284 283
290 290 290 290 290 290 290 292 293 294 294 295 295 296 296 295 296 296 296 296 296 296 296 295 294 293 292 292 291 291 291 292 291 290 291 289 286 283 281 282 282 283 284 283 282 281 279 277 278 281 281 280 279 278 277 277 278 278 277 278 279 279 279 280 281 281 282 282 282 281 281 282 283 284 286 287 288 289 290 290 290 290 290 289 288 286
288 287 287 287 288 288 289 290 292 293 294 295 295 295 295 295 295 295 296 296 296 296 296 296 295 295 294 293 292 292 292 292 291 291 291 289 287 285 282 282 283 284 285 285 284 283 281 279 280 281 282 282 280 279 278 277 277 277 277 278 279 279 278 279 279 279 279 280 280 280 280 280 281 282 283 286 287 288 289 289 289 290 290 290 290 289
286 286 286 287 288 288 289 291 292 293 293 294 295 295 295 295 295 295 295 295 295 295 295 296 296 296 296 295 294 294 294 294 293 292 292 290 288 287 286 285 285 285 285 285 285 284 283 282 282 282 282 281 280 279 278 278 278 278 278 278 279 279 278 279 279 279 278 280 281 281 281 281 281 282 283 286 287 287 288 289 289 289 289 289 289 290
286 286 287 288 288 289 290 290 291 292 293 294 295 295 295 295 295 295 295 295 295 295 295 295 295 296 296 296 296 295 295 295 294 292 292 290 289 288 287 287 286 285 285 285 285 285 284 283 282 282 281 279 278 279 279 279 278 278 278 279 279 280 279 280 280 280 279 280 281 282 283 283 283 282 282 283 284 283 283 283 285 287 287 287 288 289
286 287 287 288 289 290 290 290 291 292 293 294 294 295 295 296 295 295 295 295 295 295 294 294 294 294 293 293 294 295 295 294 292 290 290 289 288 288 288 287 286 285 285 285 285 285 284 283 283 282 282 279 277 277 277 278 278 278 278 279 280 280 280 281 281 281 280 280 281 282 283 282 281 280 279 279 280 280 279 280 281 283 284 283 284 285
287 288 288 289 290 291 291 291 291 292 293 294 295 295 295 295 295 295 295 295 295 295 294 294 294 294 294 293 294 294 295 294 293 291 289 288 288 288 288 288 287 286 285 284 284 284 284 283 283 283 283 282 281 280 279 278 278 279 280 280 280 281 281 281 281 280 280 279 279 280 280 279 278 278 278 278 278 278 279 279 279 281 282 280 279 279
286 287 288 289 290 290 291 291 292 294 295 295 295 294 294 294 294 294 293 293 293 293 293 293 293 293 293 293 293 293 293 292 292 291 289 287 287 288 288 288 288 287 285 284 284 284 284 283 283 283 283 282 282 282 282 281 281 282 282 281 281 281 282 283 282 281 280 279 278 278 280 280 280 280 279 280 280 279 279 279 279 279 281 279 278 277
285 285 286 287 288 289 290 291 293 294 294 294 293 293 293 293 293 293 292 292 292 292 292 291 291 291 291 291 291 291 290 290 290 289 288 287 287 287 288 288 288 287 286 285 284 283 284 283 283 283 282 282 282 282 282 282 282 283 283 282 281 281 282 283 281 279 279 277 276 276 279 279 279 279 280 280 280 280 281 280 280 281 282 279 278 277
285 285 286 287 288 289 290 291 292 292 293 292 292 292 293 293 293 293 292 292 292 291 291 291 290 290 290 290 289 289 289 289 289 289 289 287 287 287 287 287 287 287 286 285 284 283 283 284 283 283 283 283 282 282 281 281 282 282 282 282 282 281 280 280 279 277 276 277 276 276 276 278 279 280 280 281 280 280 280 281 282 283 283 281 279 278
286 286 287 288 289 290 291 291 291 291 291 291 292 292 293 293 293 293 292 292 292 292 292 291 290 290 289 288 288 288 288 287 287 287 288 288 287 287 287 286 286 286 286 285 284 283 283 283 283 283 283 283 282 282 281 281 281 281 281 282 282 281 280 280 279 278 277 277 277 277 277 278 279 279 280 280 280 279 279 279 279 279 281 280 279 278
287 287 288 289 289 290 290 290 291 291 291 292 292 292 292 292 292 292 292 292 292 292 292 291 290 289 287 287 287 287 287 286 285 286 286 287 288 288 287 286 286 286 286 285 285 284 283 283 283 283 283 283 282 281 281 281 281 281 282 282 282 282 281 281 281 280 279 278 278 278 277 278 278 278 278 278 278 278 278 278 278 278 278 278 278 277
288 288 289 289 290 290 290 291 291 292 292 292 292 292 292 292 292 292 292 292 291 291 291 291 290 288 287 287 286 286 286 285 285 285 285 285 286 287 287 286 286 286 285 285 285 285 284 284 283 283 282 282 281 281 281 281 280 280 281 281 281 281 281 281 280 279 278 278 277 277 277 277 277 277 277 277 278 278 277 277 277 277 276 276 276 277
288 288 288 289 289 289 290 291 291 291 291 291 291 292 292 292 292 292 292 291 291 291 290 290 289 288 287 287 287 286 285 284 284 284 284 284 285 285 285 286 286 286 285 285 285 285 285 284 284 283 282 281 280 280 280 281 281 280 280 280 280 280 280 279 279 278 277 277 278 278 277 277 276 276 277 277 277 277 277 277 276 276 276 276 276 276
288 288 288 288 288 289 289 290 290 290 290 291 291 291 292 292 292 292 291 291 290 290 290 289 288 287 287 287 287 286 285 284 284 284 284 284 284 284 285 285 285 285 285 285 285 285 285 285 284 283 283 281 280 280 280 280 280 280 280 279 279 279 279 279 278 278 277 277 277 277 277 277 277 276 276 276 276 277 277 276 276 275 275 276 276 276
287 287 288 288 288 288 288 289 290 290 290 290 290 291 291 291 292 292 291 290 290 289 289 288 287 287 286 286 287 286 285 284 284 284 284 284 284 284 284 284 284 284 284 284 284 284 284 284 284 284 284 283 282 280 280 280 280 279 279 279 278 279 278 278 278 278 277 277 277 276 276 276 277 277 276 275 275 276 276 276 276 275 274 275 275 276
287 287 287 287 287 287 288 288 289 289 290 290 290 290 290 290 290 290 290 290 289 289 288 288 287 286 286 286 286 286 285 284 284 284 284 284 284 284 283 283 283 283 282 282 282 282 281 281 282 283 285 285 284 282 281 280 279 278 278 278 278 278 278 278 278 278 278 278 277 276 275 275 275 275 275 275 275 275 276 276 276 275 274 274 274 275
287 287 287 287 288 288 288 289 289 289 289 289 290 290 290 289 289 289 289 289 288 288 288 287 287 286 286 286 286 286 285 284 284 283 284 284 284 283 283 283 282 282 281 280 280 279 279 278 278 279 281 285 285 284 282 280 279 278 278 277 277 277 277 277 277 278 278 278 277 276 274 274 274 274 274 274 274 275 275 275 275 274 273 272 273 274
Wind_Speed
2 1 1 1 1 2 3 3 2 3 5 5 5 4 4 4 3 4 5 5 5 5 4 4 4 5 6 8 10 12 13 13 14 14 15 15 16 16 17 17 18 18 18 18 18 18 18 19 19 19 19 19 19 19 19 19 19 19 19 18 18 18 17 17 17 16 16 16 16 15 15 14 13 12 11 11 11 10 11 11 12 13 13 14 15 15
2 1 1 1 1 2 4 3 3 3 4 5 5 5 4 4 4 4 4 5 5 5 4 5 5 5 6 7 10 12 13 14 14 15 16 16 17 18 18 19 19 19 19 19 19 19 19 19 19 19 19 19 19 19 19 19 19 19 19 18 18 18 18 17 17 17 17 16 16 15 14 13 12 11 11 11 11 11 12 13 13 14 14 15 15 16
2 2 2 1 1 2 4 4 3 3 4 5 5 5 5 5 5 5 4 4 4 4 4 4 4 5 6 7 9 12 13 14 15 16 17 17 18 18 19 19 20 20 20 20 19 19 19 19 19 19 19 19 19 19 19 19 19 19 19 18 18 18 18 18 17 17 17 16 15 14 13 12 11 11 11 12 12 13 13 14 14 15 15 16 16 16
3 3 3 2 2 3 4 4 4 4 4 5 5 5 5 5 5 5 5 4 4 4 4 4 4 5 5 6 8 10 13 14 15 16 17 18 19 19 20 20 20 20 20 20 20 20 19 20 20 20 19 19 19 19 19 19 19 18 18 18 17 17 17 17 17 17 16 16 15 14 13 12 12 12 12 13 13 14 14 15 15 15 16 16 16 17
3 3 3 2 3 3 4 4 4 4 4 4 4 5 4 5 5 5 5 4 4 4 4 4 4 5 5 5 7 10 13 15 16 17 18 19 19 20 20 20 21 21 21 21 20 20 20 20 20 20 19 19 19 19 19 19 18 18 18 17 17 17 17 17 17 17 16 15 15 14 13 13 13 13 13 14 14 15 15 15 15 16 16 16 17 17
4 3 3 3 3 3 3 3 4 4 3 3 4 4 4 4 4 5 5 4 4 4 4 4 4 4 5 5 7 10 13 14 16 17 18 19 19 20 20 21 21 21 21 21 21 21 20 20 20 20 20 19 19 19 19 19 18 18 17 17 17 17 17 17 17 16 16 15 15 14 14 14 14 14 14 14 15 15 15 16 16 16 16 17 17 17
4 3 3 3 3 3 3 3 3 3 3 4 4 4 4 4 4 5 5 5 4 4 4 4 4 4 5 6 8 10 11 13 15 16 17 18 19 19 20 20 21 21 21 21 21 21 21 21 20 20 20 19 19 19 19 19 18 18 17 17 17 17 17 17 17 16 16 15 15 15 15 15 15 15 15 15 15 15 16 16 16 16 17 17 17 17
5 5 4 4 4 3 3 3 3 3 4 4 4 4 4 4 4 5 5 5 4 4 4 4 4 4 4 5 6 7 8 9 10 11 13 14 15 17 18 19 20 20 21 21 21 21 21 21 21 20 20 20 19 19 19 18 18 17 17 17 16 16 16 16 16 16 16 16 15 15 15 15 15 15 15 15 15 16 16 16 17 17 17 17 17 17
7 6 5 5 4 4 4 4 4 4 4 4 4 4 5 5 4 4 4 4 4 3 3 4 4 4 4 4 4 5 6 7 7 7 8 9 10 11 14 15 17 18 19 20 20 20 21 21 20 20 20 19 19 19 19 18 17 16 16 16 15 16 16 16 16 16 16 16 16 16 16 16 16 16 16 16 16 16 16 16 17 17 17 17 17 17
6 6 6 5 5 5 5 5 5 3 3 3 3 4 4 5 5 5 5 5 4 3 3 4 4 5 4 3 3 4 5 7 8 9 10 10 11 12 13 13 14 15 17 18 19 19 20 20 20 20 20 19 19 19 18 17 16 15 15 15 15 15 15 16 16 16 16 16 16 16 17 17 17 17 17 16 16 16 16 17 17 17 17 17 17 17
6 6 5 5 5 4 4 5 4 2 1 1 1 2 2 3 4 4 6 6 5 3 3 3 4 4 4 3 3 3 3 4 6 8 10 12 13 14 14 14 14 14 16 17 18 18 19 19 19 19 19 19 19 18 17 16 15 15 14 14 14 15 15 16 16 16 16 17 17 17 17 18 17 17 17 17 17 17 17 17 17 17 17 17 17 17
5 4 4 4 4 3 3 3 2 1 1 0 1 2 3 3 3 4 5 6 6 5 4 3 3 3 4 4 3 3 3 3 4 5 6 7 9 10 10 10 11 12 13 14 15 16 17 18 18 18 18 17 17 17 16 15 14 14 14 14 15 15 16 16 16 17 17 17 18 18 18 18 18 18 18 17 17 17 17 17 17 17 17 17 17 17
4 4 3 4 4 3 3 3 2 1 1 2 3 4 4 3 3 3 4 5 5 5 5 4 3 3 3 4 3 3 3 4 4 4 4 4 4 5 5 5 6 6 7 7 8 9 13 14 15 16 16 15 15 15 15 14 14 14 14 15 15 16 16 16 17 17 17 18 18 18 18 18 18 18 18 17 17 17 17 17 16 16 16 16 16 16
4 4 4 4 4 4 3 4 4 4 3 3 4 4 4 2 2 2 3 4 4 4 3 4 4 4 3 3 3 3 3 4 4 4 4 4 4 3 3 4 4 4 4 4 5 6 9 10 10 11 13 13 14 14 14 14 14 15 15 16 16 16 17 17 17 17 18 18 18 18 18 18 18 18 17 17 17 17 17 16 16 16 16 16 16 16
4 4 5 5 5 4 3 4 4 4 4 4 3 3 2 2 1 2 3 4 4 3 3 4 5 5 4 3 3 4 4 4 4 4 4 4 4 3 3 4 4 4 3 4 5 6 8 7 7 7 8 10 11 12 13 13 15 16 16 17 17 17 17 18 18 18 18 18 18 18 18 18 18 17 17 17 17 16 16 16 16 16 16 16 16 16
4 5 6 6 5 5 4 4 4 4 4 3 2 2 2 2 2 2 3 4 4 3 3 4 5 5 4 4 3 3 3 3 3 3 4 4 3 2 3 3 3 3 3 4 5 5 5 6 6 7 7 10 13 14 16 15 16 17 17 18 18 18 18 18 18 18 18 18 18 18 18 18 17 17 17 17 16 16 16 16 16 16 16 16 17 16
5 5 6 6 6 6 5 4 4 4 3 2 2 2 3 3 3 3 3 3 3 3 3 3 4 5 5 3 2 2 2 2 2 2 2 3 3 2 2 3 3 4 4 5 5 5 4 5 6 6 7 11 14 16 16 17 17 18 18 18 19 19 19 19 18 18 18 18 18 18 18 17 17 17 17 16 16 16 16 16 16 16 17 17 17 16
4 5 6 7 7 6 5 4 4 4 3 2 2 2 3 3 3 3 3 3 3 3 3 3 4 4 4 5 3 2 3 3 2 1 2 4 4 2 1 2 3 4 4 5 5 5 5 5 6 6 8 12 15 16 17 18 18 18 19 19 19 19 19 19 18 18 18 18 18 18 18 17 17 17 17 16 16 16 16 16 16 17 17 17 16 16
6 5 6 6 6 6 5 5 4 3 3 3 3 2 3 3 3 4 4 4 4 5 5 5 5 5 5 6 4 2 3 3 2 2 2 4 4 2 1 1 3 4 5 5 5 5 5 5 7 9 12 14 16 17 18 18 19 19 19 19 19 19 19 18 18 18 18 18 18 18 18 17 17 17 16 16 16 16 16 16 17 17 17 16 16 15
8 7 7 7 6 6 6 5 4 4 4 3 3 3 4 3 4 4 5 5 5 5 5 6 6 6 4 5 5 3 3 3 2 2 3 4 4 3 2 2 3 4 5 5 5 5 5 5 6 8 12 14 16 17 18 19 19 19 19 19 19 19 18 18 18 18 18 18 18 18 18 17 17 17 16 16 16 16 16 17 17 17 17 16 15 14
10 10 8 7 7 6 6 5 4 4 4 3 3 3 4 3 4 4 4 4 5 5 5 6 6 6 5 6 6 3 4 4 3 3 3 4 4 3 2 2 3 4 5 5 5 5 4 5 5 6 9 13 15 17 18 19 19 19 19 19 19 19 18 18 18 18 18 18 18 18 18 17 17 17 16 16 16 16 16 17 17 17 16 15 14 14
10 10 10 10 9 8 8 6 5 5 5 4 3 3 3 3 4 4 4 4 5 5 6 6 6 6 5 7 6 4 5 5 4 4 4 5 5 4 1 1 2 3 5 5 4 4 3 4 4 6 9 13 16 17 18 19 19 19 19 19 19 18 18 18 18 18 18 18 18 18 18 17 17 17 16 16 16 16 16 17 17 16 15 14 14 13
10 11 11 11 10 10 9 8 7 6 5 5 5 4 4 4 4 4 4 4 5 5 6 6 6 5 5 6 4 3 4 5 4 4 4 6 7 5 1 1 1 2 5 4 4 3 3 3 4 6 9 14 16 17 18 19 19 19 19 19 19 18 18 18 18 18 19 18 18 18 18 17 17 16 16 16 16 16 16 16 16 16 15 14 14 14
9 10 10 10 10 10 9 8 6 5 4 4 5 5 5 5 5 5 4 4 5 5 5 5 5 5 5 6 5 4 3 4 4 4 4 6 6 5 2 1 2 3 5 4 3 3 3 3 4 5 6 11 14 16 17 18 19 19 19 19 19 18 18 18 18 18 18 18 18 18 17 17 17 16 16 16 16 16 16 16 16 15 14 14 14 14
9 9 9 9 11 12 11 10 9 8 6 5 4 4 4 5 5 5 5 4 4 4 4 5 6 7 5 5 5 4 3 4 5 4 4 4 5 5 3 2 3 4 5 3 2 2 3 4 4 4 5 8 12 14 16 17 18 18 18 18 18 18 18 18 18 18 18 18 18 17 17 17 17 16 16 15 16 16 16 16 15 15 14 14 14 14
13 13 13 15 17 19 20 20 19 18 17 12 8 5 4 5 5 5 5 4 4 4 5 7 8 7 5 4 4 4 2 4 5 5 4 4 4 4 3 2 3 4 5 3 2 2 3 4 4 4 4 6 9 12 15 16 17 18 18 18 18 18 18 18 18 18 17 17 17 17 17 17 16 16 15 15 15 16 16 16 15 15 15 15 15 14
20 21 22 23 23 23 24 24 25 25 26 23 18 13 9 7 6 7 6 4 3 4 6 7 8 7 6 5 5 4 3 3 4 5 5 4 4 4 3 2 2 3 4 3 2 3 4 5 5 4 5 5 6 8 13 15 16 17 17 17 17 17 17 17 17 17 17 17 17 17 16 16 16 15 15 15 15 16 16 16 15 15 15 14 13 12
21 21 22 23 23 24 24 25 25 25 26 26 26 23 17 10 9 9 9 4 3 4 7 7 7 7 6 6 6 5 3 3 4 5 5 3 4 4 3 2 2 2 2 3 3 3 4 5 5 5 5 5 4 6 9 11 13 14 15 15 16 16 16 16 16 16 16 16 16 16 15 15 14 14 14 15 15 15 16 16 15 15 14 12 8 6
17 18 20 20 21 22 23 22 22 23 23 25 25 23 18 11 10 10 9 5 5 6 8 8 7 7 7 6 6 5 5 4 5 6 5 4 4 4 2 2 2 2 1 2 2 2 3 3 4 4 4 3 3 3 5 7 8 9 10 12 13 13 14 14 15 15 15 15 14 14 13 13 13 13 14 14 15 15 15 16 15 13 10 8 5 3
11 12 14 14 15 16 16 16 16 17 20 22 23 22 17 12 10 9 8 6 6 8 10 9 8 8 7 6 6 5 5 4 5 6 7 5 4 3 2 2 2 2 2 1 2 3 3 3 2 2 2 2 3 3 3 3 3 4 5 7 8 9 11 11 12 12 12 12 12 11 11 12 12 13 13 14 14 15 15 16 14 11 6 4 3 2
10 10 10 10 10 10 11 11 11 13 15 17 18 18 14 11 10 9 8 7 8 9 10 9 9 8 7 6 6 5 5 3 4 6 7 5 4 2 3 3 3 3 3 2 1 3 3 2 2 2 2 2 2 2 3 2 2 2 2 3 3 5 6 7 7 8 8 8 9 10 10 11 12 12 13 13 14 14 15 15 13 10 4 2 2 2
10 10 10 10 9 9 10 10 10 10 11 11 12 12 11 10 10 9 8 8 8 8 9 9 9 8 7 7 7 6 5 2 3 6 6 4 3 2 3 3 3 3 3 3 3 3 3 2 2 2 2 2 2 2 2 2 1 1 1 1 1 2 3 3 4 4 4 6 7 9 10 10 11 12 13 13 14 14 14 15 13 10 4 3 3 3
11 11 10 10 10 10 10 10 10 10 9 9 9 9 9 9 9 10 9 8 8 8 9 9 9 8 7 8 8 7 5 3 4 6 7 4 2 1 2 3 3 3 2 3 3 3 3 2 2 2 2 2 2 2 2 2 1 1 1 1 1 2 2 2 2 2 3 4 5 7 8 9 10 11 12 12 13 13 14 14 13 11 7 4 3 4
11 11 10 10 10 10 10 10 11 10 10 9 9 8 8 8 9 10 10 9 8 8 9 9 8 8 7 7 7 6 6 3 4 7 8 5 3 1 2 3 3 3 2 2 2 2 2 3 3 2 2 2 2 2 2 2 1 0 0 1 1 1 1 1 1 1 1 2 2 3 5 6 7 8 9 10 11 11 12 12 13 12 11 7 5 4
9 9 9 9 10 10 11 11 12 11 11 10 9 9 8 8 8 9 9 9 8 8 8 8 8 8 7 7 6 6 6 3 5 7 8 5 3 2 1 3 3 3 2 3 3 2 2 3 3 3 3 3 2 2 1 1 1 1 0 1 1 1 1 1 0 1 1 1 1 2 2 3 4 5 6 7 8 9 11 11 12 13 14 12 10 7
8 9 9 9 10 11 12 12 12 11 11 9 9 8 8 8 8 8 9 8 8 8 9 8 8 8 8 8 8 8 8 4 4 7 8 6 4 3 2 3 3 3 4 4 3 3 3 3 4 4 4 4 3 3 2 1 1 1 1 1 1 2 2 1 1 1 1 1 2 2 2 2 3 3 4 6 8 9 10 11 12 13 14 14 13 12
9 9 9 10 10 11 12 11 11 10 10 9 8 8 8 8 8 8 8 8 8 9 9 9 9 9 10 9 9 9 9 7 5 6 7 6 5 4 4 3 4 4 5 5 4 4 3 3 4 4 4 4 4 3 2 1 1 1 1 1 2 2 2 2 2 2 1 2 3 3 3 3 3 3 4 6 7 8 9 10 11 11 13 13 14 14
9 10 10 10 10 11 11 11 10 9 8 8 8 8 8 8 8 8 8 8 9 10 9 9 9 10 13 13 12 12 11 10 9 8 8 7 6 6 6 4 4 5 5 5 5 4 4 4 4 4 3 4 4 3 2 1 1 1 2 1 1 2 2 2 2 2 2 3 3 4 4 4 3 3 3 4 4 4 4 5 6 8 10 10 12 13
10 11 11 10 10 10 10 10 10 9 8 9 9 9 8 9 9 9 8 8 9 10 10 9 9 9 11 12 13 14 13 12 10 9 8 8 7 6 6 5 5 5 5 5 5 4 4 5 5 5 4 3 3 3 2 2 2 2 2 1 2 2 2 2 2 3 3 3 4 4 4 3 3 2 2 2 2 2 2 3 4 5 5 4 6 9
11 11 11 10 9 9 10 10 10 9 9 10 10 10 9 8 8 8 8 8 8 8 9 9 9 8 9 9 11 12 13 11 10 8 7 7 7 7 7 7 6 5 5 5 5 5 5 5 5 5 5 4 3 2 2 2 2 2 2 2 2 2 3 3 3 3 3 3 3 4 3 3 2 2 3 2 2 2 3 2 3 3 3 3 3 4
12 12 11 11 10 10 11 11 10 9 9 8 8 8 8 7 6 6 6 6 6 7 6 7 7 7 8 8 9 9 10 10 9 8 6 8 8 8 7 7 6 5 4 5 5 5 6 6 6 5 5 5 4 4 4 3 4 4 4 4 3 3 2 3 3 3 3 3 3 3 3 3 3 3 3 3 3 3 3 3 3 3 4 3 3 3
13 12 12 11 10 10 11 11 10 10 10 8 8 8 7 6 6 6 6 6 5 5 5 5 5 6 7 8 8 8 8 8 7 7 8 9 9 9 8 7 6 5 5 5 5 5 6 6 6 6 5 5 4 5 5 4 4 4 5 4 3 3 4 4 3 2 3 3 3 3 4 3 3 3 3 3 3 3 4 4 4 5 5 4 3 4
11 11 10 10 10 11 11 11 11 10 9 9 9 9 8 7 6 6 7 7 6 6 5 5 5 6 7 8 7 7 6 6 6 7 7 8 9 9 9 8 7 6 5 5 5 5 6 6 6 6 5 4 4 5 5 5 4 4 4 4 3 3 3 2 2 2 2 3 3 3 3 3 3 3 3 4 4 3 4 5 6 7 7 4 4 4
11 10 10 10 10 10 10 10 9 9 9 10 10 10 9 8 8 7 7 7 6 6 5 5 6 6 7 8 8 6 5 4 5 5 6 8 9 9 9 8 7 7 6 6 5 5 4 5 6 5 4 4 4 5 5 5 4 4 4 4 4 4 4 2 1 2 2 2 2 2 3 3 3 3 3 4 4 4 3 4 4 5 6 4 4 4
10 10 10 10 10 9 10 10 9 9 9 10 10 9 8 8 8 7 7 6 6 7 6 6 5 5 6 6 6 6 4 3 3 4 5 7 9 10 9 8 7 7 7 6 6 5 4 5 4 4 3 3 4 5 5 5 5 4 4 4 4 5 5 3 2 2 2 2 2 2 3 2 2 3 3 4 4 4 4 4 4 4 4 4 3 4
9 9 10 9 9 9 10 10 9 9 9 9 9 8 7 7 7 7 7 7 8 8 7 6 5 5 6 6 5 4 3 3 3 3 4 5 6 7 7 7 7 6 6 6 6 5 5 4 4 3 3 3 4 5 6 5 5 4 4 4 4 4 4 3 3 2 2 2 3 3 3 2 2 3 4 4 4 4 4 4 4 4 4 4 4 4
9 9 9 9 9 9 9 9 9 9 9 8 8 7 7 7 7 7 7 8 8 7 7 6 6 7 8 6 6 5 4 4 4 4 4 4 4 5 5 5 6 6 5 5 5 5 5 4 3 3 3 3 4 5 5 4 4 4 4 3 3 3 3 3 3 2 2 3 3 3 2 2 2 3 4 4 4 4 4 3 4 4 4 4 4 4
10 10 9 9 9 9 9 9 9 9 9 9 8 8 7 7 8 8 7 7 7 6 6 6 6 7 8 8 7 6 5 4 4 4 4 4 4 4 4 4 4 4 4 4 4 4 4 3 4 4 4 4 4 4 4 4 4 4 3 3 2 3 4 3 3 2 2 3 3 3 2 2 3 3 3 4 4 4 4 4 3 3 4 4 4 4
10 10 10 10 10 10 10 10 9 10 10 10 9 8 7 8 9 9 7 7 6 6 6 6 7 7 8 8 7 6 5 4 4 4 4 4 4 4 4 4 3 3 3 3 3 3 2 3 3 4 5 5 5 5 4 4 3 3 2 2 2 3 3 3 3 3 2 3 3 3 2 2 2 3 2 3 4 5 5 5 4 4 3 3 4 4
10 10 10 11 11 11 11 11 11 11 11 10 9 8 7 6 6 6 7 7 6 6 6 7 8 8 8 8 7 6 5 5 4 4 4 4 4 4 4 4 4 3 2 2 2 2 1 2 3 4 6 7 6 5 5 4 3 2 2 2 2 2 3 3 3 3 3 3 3 2 2 2 1 1 1 3 4 6 6 6 5 4 3 3 3 4
10 10 11 11 11 11 11 11 10 10 10 9 9 9 8 6 6 6 6 6 6 7 7 8 8 8 8 8 7 7 6 6 5 5 5 4 4 4 4 4 4 4 3 3 2 2 1 1 2 3 5 8 9 8 5 4 3 2 2 2 2 2 3 3 3 3 3 3 2 1 1 1 1 1 1 2 4 5 6 6 5 4 3 2 3 4
Wind_Direction
248 251 228 180 217 271 276 269 271 279 285 288 290 290 292 288 276 260 250 247 244 243 244 245 248 253 260 265 268 269 270 272 273 274 275 276 277 277 277 277 277 276 275 275 274 273 273 272 272 273 274 275 275 276 275 274 273 272 271 271 271 272 273 273 273 273 271 270 268 268 267 268 268 269 269 269 269 269 270 271 273 274 275 276 277 277
272 277 268 169 193 251 274 275 264 256 268 278 283 285 290 291 289 283 274 260 250 244 246 249 250 252 256 262 265 267 268 270 272 273 274 275 276 277 277 277 277 277 277 276 275 275 274 273 272 273 273 275 276 276 276 275 274 273 272 272 272 273 274 275 276 276 275 274 274 273 274 274 274 273 272 271 270 271 271 272 273 274 276 276 276 276
291 291 283 246 213 237 264 274 264 244 243 260 269 276 282 283 283 280 276 265 252 243 241 243 247 250 253 258 262 264 266 268 270 271 273 274 275 276 277 277 278 278 277 277 276 275 274 273 273 273 274 275 276 276 276 274 273 272 271 271 272 273 274 275 276 276 276 276 276 277 277 277 276 274 272 271 271 271 272 273 274 275 275 276 276 276
283 281 279 276 253 243 248 260 259 252 240 251 262 270 277 275 273 270 266 260 254 249 245 240 243 247 252 256 259 261 263 265 267 269 271 273 274 275 276 277 278 278 278 277 276 275 274 273 273 274 275 276 276 276 275 273 272 270 269 269 270 271 272 273 273 273 274 274 274 274 274 273 272 271 271 271 271 271 272 273 274 274 275 275 276 276
272 271 273 275 268 259 248 250 253 255 255 257 263 269 272 267 266 266 267 263 259 256 254 246 242 242 249 253 256 259 260 262 265 267 269 270 272 274 276 277 277 278 277 277 276 274 273 273 273 274 274 275 275 275 274 272 271 269 268 267 268 268 269 269 269 269 269 269 269 269 269 268 268 268 268 269 270 271 271 272 273 274 275 275 276 276
267 264 265 264 264 263 258 253 251 253 260 264 264 262 261 260 263 266 270 266 263 259 257 251 244 242 244 248 253 256 258 261 263 265 267 269 271 273 275 276 276 276 276 275 275 274 272 272 272 272 272 273 273 273 273 271 270 269 267 266 266 266 266 266 266 266 266 265 265 264 264 264 265 265 266 267 268 269 271 272 273 274 275 275 275 275
265 261 260 261 263 263 262 256 246 240 242 255 259 259 257 257 258 259 259 260 260 261 264 259 253 246 245 248 251 254 257 260 263 264 266 268 270 272 273 274 274 274 274 274 273 272 271 270 270 270 270 271 271 271 271 270 269 268 267 266 265 265 265 264 264 263 263 262 262 262 262 262 263 264 264 265 267 268 270 271 273 274 275 275 275 275
265 264 258 260 265 270 266 256 241 229 226 241 251 258 260 257 252 250 252 256 259 260 264 267 263 255 247 246 247 251 254 258 262 264 266 268 269 270 271 272 272 272 272 272 271 270 269 268 268 268 268 269 269 270 270 269 268 267 266 265 264 264 264 263 262 262 261 261 260 261 261 262 262 263 263 264 266 267 269 271 272 274 274 275 275 275
263 265 262 256 259 265 269 260 242 224 218 228 237 246 254 257 256 254 253 257 254 249 247 258 264 264 255 244 240 242 246 249 252 255 259 261 263 266 267 269 270 270 270 269 269 268 267 267 266 266 267 267 268 268 268 267 266 265 264 263 263 263 262 262 261 261 260 260 260 261 261 262 262 263 263 264 265 267 269 271 272 273 274 274 274 274
258 261 264 259 254 253 261 263 251 227 206 219 226 233 239 250 258 263 264 261 253 241 232 242 254 264 266 253 239 236 242 247 249 251 253 256 257 259 261 264 266 267 267 267 267 266 266 265 265 265 266 266 267 267 267 266 265 263 262 262 261 261 261 260 260 260 260 260 261 261 262 262 263 263 264 265 266 267 269 270 272 272 273 273 274 274
258 258 261 262 257 250 247 255 250 229 160 201 236 246 239 238 245 257 267 267 263 255 246 234 236 247 262 263 253 239 237 249 253 255 256 258 259 260 262 263 264 265 266 266 266 266 265 265 265 265 265 266 266 266 266 265 264 262 261 260 260 259 259 259 260 260 260 261 262 262 263 263 264 264 265 265 267 268 269 270 271 271 272 272 273 273
260 260 259 260 259 255 249 250 244 202 115 186 257 267 264 239 225 232 255 265 268 269 269 256 238 230 238 253 259 259 251 256 259 260 260 260 260 261 262 263 264 264 265 266 266 266 265 265 265 265 265 265 265 265 264 263 262 261 259 259 259 258 259 259 259 260 261 262 262 263 264 264 264 265 265 266 267 268 269 270 270 270 270 271 271 272
258 259 260 260 258 257 256 261 262 253 220 219 235 245 251 235 211 212 238 256 263 268 273 273 263 246 232 237 246 257 263 263 263 263 261 260 256 254 255 258 260 261 263 265 265 265 265 265 265 265 265 265 265 264 263 262 261 260 259 258 258 258 259 259 260 261 262 262 263 264 264 264 264 265 265 266 267 268 269 269 269 269 269 269 270 270
261 261 261 261 259 257 254 255 255 252 240 227 229 236 243 227 201 205 240 256 261 263 268 271 271 267 257 244 236 236 245 257 262 263 261 256 248 241 241 249 251 252 254 258 259 259 258 260 262 263 263 263 263 263 261 261 260 259 259 258 259 259 259 260 261 262 263 263 264 264 264 264 264 264 265 266 266 267 268 268 268 269 269 269 269 270
262 263 263 262 260 256 251 249 250 248 242 231 230 235 245 232 212 213 245 261 265 269 271 272 272 271 263 245 232 225 228 242 252 260 264 259 248 233 224 240 247 249 246 250 253 253 251 253 255 258 259 258 258 258 258 258 258 258 259 259 259 260 261 261 262 263 263 264 264 264 264 264 264 264 264 265 265 266 266 267 268 269 269 269 269 269
260 261 263 265 264 260 253 248 248 249 247 235 223 217 229 237 230 225 237 257 266 273 271 278 280 277 265 244 229 221 219 234 246 256 262 263 255 230 200 224 242 249 242 245 248 249 246 246 248 250 252 253 255 255 256 257 258 258 259 259 260 261 261 262 262 263 263 264 264 264 263 263 263 263 263 264 264 265 265 266 268 269 269 269 269 268
258 259 261 265 265 263 258 251 248 248 246 236 217 204 211 223 224 224 228 248 259 266 260 267 275 280 282 273 256 226 188 197 217 241 252 259 258 238 182 206 233 245 242 244 245 245 240 240 243 246 247 250 252 254 255 256 257 258 259 259 260 261 261 262 262 262 263 263 263 263 262 262 262 262 262 262 263 264 265 266 268 269 269 268 268 267
253 252 257 261 263 263 261 253 249 245 239 233 223 216 218 222 222 224 233 240 249 255 258 256 259 266 279 282 275 232 149 162 179 228 250 263 264 257 177 203 227 240 245 248 247 244 236 235 236 240 246 250 252 254 255 256 257 258 259 259 260 260 261 261 261 261 261 261 261 261 261 261 261 261 261 261 262 263 265 267 268 269 268 267 267 266
260 253 252 256 260 261 258 253 247 240 231 224 219 220 228 223 219 222 231 234 239 244 251 255 256 257 261 268 266 241 162 169 186 229 252 266 267 259 156 205 229 239 245 249 249 246 238 237 239 243 248 251 253 255 256 257 258 258 259 259 260 260 260 260 260 260 260 260 260 260 260 260 260 260 260 261 262 264 266 268 269 269 267 266 265 265
274 268 261 264 266 265 260 252 244 234 225 218 215 217 226 219 218 221 228 230 234 238 241 248 252 255 256 263 263 246 171 170 197 240 252 263 263 253 169 195 221 236 244 248 247 243 239 238 244 249 252 254 255 256 258 258 259 259 259 259 259 259 259 259 260 260 260 260 259 259 259 259 258 259 259 260 262 264 267 268 269 268 266 264 263 263
279 276 272 273 274 272 267 260 250 238 232 225 223 225 230 224 223 224 224 226 231 235 235 241 246 250 251 260 259 237 170 172 195 236 258 261 259 249 189 193 215 234 245 251 249 242 237 236 239 245 251 253 255 256 258 258 259 259 259 259 259 259 259 259 259 259 259 259 259 258 258 257 257 257 258 260 262 265 268 268 268 266 264 262 262 263
277 278 279 278 277 275 276 274 266 257 248 239 235 235 236 233 235 235 230 227 231 235 235 239 243 245 242 253 253 227 169 182 201 229 262 268 265 258 218 191 211 233 245 252 253 247 236 233 237 243 247 251 253 255 256 257 258 259 259 259 259 259 259 259 260 260 260 259 258 257 256 256 256 256 257 260 263 266 268 267 266 264 261 260 261 263
271 275 279 279 277 277 279 279 276 268 255 244 241 243 245 242 243 244 242 234 236 241 243 245 247 245 241 247 246 223 174 187 198 217 247 263 266 265 246 180 207 237 246 251 257 257 245 236 238 245 250 251 252 254 255 256 257 258 258 259 259 259 259 260 260 260 260 259 258 257 256 256 256 256 258 260 263 265 267 266 263 261 258 258 260 263
265 270 274 274 275 276 278 279 277 270 251 242 242 245 247 245 245 246 245 243 247 251 255 258 258 255 248 249 248 237 197 188 189 202 231 256 264 266 244 183 221 249 254 249 252 257 257 248 243 245 252 251 252 253 254 256 257 257 258 258 259 259 259 260 260 260 259 259 258 257 256 256 256 257 258 261 263 265 266 264 261 257 255 256 259 263
265 267 269 270 271 272 274 275 274 271 262 250 242 241 242 246 249 251 250 247 249 255 261 264 263 261 256 251 247 237 204 185 182 191 221 251 263 263 239 196 223 251 261 251 245 251 261 257 252 250 252 253 252 252 253 254 256 257 257 258 258 259 259 260 260 259 259 258 258 257 257 257 257 258 259 261 263 265 265 262 258 255 254 256 260 263
271 271 271 272 272 273 273 273 274 273 272 268 261 250 244 249 254 256 252 244 242 247 257 260 261 262 261 256 250 242 210 190 189 196 211 241 258 260 239 202 221 246 263 260 250 249 261 261 257 252 249 251 250 249 250 252 254 256 257 258 259 259 260 260 260 259 259 259 258 259 259 259 259 259 260 262 264 264 264 260 256 254 253 257 260 264
276 276 276 276 275 274 274 273 273 273 273 272 270 267 264 263 264 263 255 243 234 241 252 257 261 264 264 258 255 249 219 194 196 201 203 226 249 256 242 216 224 246 265 266 253 243 254 259 258 254 250 248 245 245 247 250 253 255 257 259 260 261 261 261 261 261 261 260 260 260 260 260 260 260 261 263 264 264 262 258 255 254 255 257 260 264
277 277 277 276 275 274 272 272 271 272 272 272 271 270 269 268 267 265 261 252 243 246 251 254 259 264 265 260 259 255 235 204 195 193 190 209 236 247 235 219 222 237 261 271 264 252 252 257 257 255 253 251 248 247 250 253 256 258 261 262 263 263 264 264 263 263 262 262 262 262 262 261 261 262 263 264 264 263 260 256 254 254 256 258 260 262
278 277 276 275 274 273 271 270 270 270 270 271 270 269 266 263 261 262 265 262 256 254 256 256 257 260 265 264 264 259 245 219 191 177 173 198 229 241 216 218 220 221 228 280 289 284 269 262 258 256 258 266 267 265 263 263 263 264 266 266 266 266 266 265 265 264 264 264 263 263 263 263 264 264 265 265 263 262 259 256 255 255 256 258 259 259
282 281 279 278 276 275 274 272 271 269 269 268 267 265 261 256 253 255 260 257 255 255 260 260 260 260 263 268 268 262 249 223 184 168 169 196 222 232 178 218 222 209 169 255 294 293 282 275 268 265 275 291 289 281 276 271 268 267 269 269 269 267 266 265 265 265 265 265 266 266 265 266 266 267 267 265 263 261 259 256 256 255 254 255 254 251
290 288 286 284 283 281 278 276 273 271 268 265 263 260 256 250 247 248 250 246 247 251 257 260 260 259 259 263 265 264 260 229 181 170 171 198 217 213 158 214 226 209 160 168 237 278 284 286 284 284 301 301 290 278 270 262 253 251 255 266 269 268 265 266 268 270 272 272 272 272 271 271 270 269 268 266 264 261 259 258 257 256 253 246 244 246
291 290 288 288 288 286 283 281 278 273 268 263 258 253 249 245 242 241 241 239 241 245 252 256 258 258 255 255 258 261 266 254 188 179 175 199 219 210 164 208 226 218 163 170 193 231 269 279 288 300 317 304 289 278 274 263 247 230 223 231 256 268 269 276 282 287 289 284 282 280 279 277 275 273 271 268 266 263 261 260 259 258 251 240 238 243
287 286 286 288 288 287 285 282 279 275 269 262 255 249 245 241 239 238 238 238 238 241 246 252 256 258 258 257 258 260 266 254 196 184 185 195 212 211 176 204 219 219 163 174 189 209 239 254 272 291 304 291 282 278 283 275 257 214 183 195 231 264 284 307 316 310 303 293 290 288 287 285 283 281 278 275 272 269 266 264 263 262 258 248 239 241
283 283 284 286 287 287 285 283 279 275 268 261 254 247 241 238 237 238 239 239 238 239 242 247 252 256 259 259 259 261 267 240 183 178 191 196 204 201 174 198 207 206 166 177 191 213 245 250 258 271 286 284 279 275 278 276 276 255 175 187 212 242 281 323 334 308 293 290 290 291 290 290 290 289 286 283 279 276 273 270 268 267 266 261 253 245
284 285 285 287 288 287 286 283 279 274 268 261 254 247 240 237 236 237 239 238 238 238 239 240 243 246 250 254 257 259 262 235 178 174 191 197 197 185 172 200 199 195 193 200 198 205 244 249 245 245 264 277 282 280 274 266 270 276 255 217 214 222 238 235 241 260 279 279 276 274 276 280 283 285 285 283 281 279 276 274 271 270 269 266 264 258
288 286 286 286 286 285 284 281 277 273 268 263 256 248 241 237 236 236 237 237 237 236 237 237 238 239 240 244 249 253 257 245 195 179 189 194 191 185 201 210 202 198 215 224 219 213 224 241 240 237 242 258 269 278 281 279 283 282 255 230 222 221 221 204 193 194 230 259 262 261 258 260 262 265 269 275 276 277 276 275 273 272 271 270 268 266
283 282 281 281 281 281 280 277 274 271 269 266 260 253 245 241 238 236 236 235 234 234 235 236 236 236 236 238 242 246 252 248 224 198 192 194 194 201 220 219 203 198 214 229 231 227 223 240 246 244 236 239 246 257 271 290 306 295 256 228 219 219 220 202 189 187 203 241 253 256 252 249 251 254 260 269 273 276 278 278 277 276 276 275 273 272
276 276 277 277 277 276 275 273 271 270 271 269 265 259 251 246 242 239 237 235 233 233 235 235 237 238 238 240 242 244 249 249 240 222 202 198 198 207 224 227 214 206 213 225 230 230 225 236 244 247 242 235 232 231 233 236 251 256 253 241 234 231 230 215 206 203 215 241 253 256 253 247 244 247 255 264 271 277 280 279 279 279 279 279 278 277
275 276 277 276 274 272 270 270 271 272 271 269 265 262 257 252 247 243 240 237 234 232 232 233 236 239 239 241 242 245 247 246 240 227 209 201 200 207 220 227 224 217 213 221 225 227 225 230 235 240 244 244 236 224 212 205 212 224 245 265 264 254 239 229 224 224 227 237 250 256 258 249 239 236 243 248 250 253 260 264 266 268 272 278 282 281
278 278 278 276 274 271 270 272 274 274 272 269 266 264 260 256 252 248 243 240 238 237 235 235 237 240 240 241 243 244 245 244 238 227 210 204 203 206 214 223 225 220 210 213 218 223 224 231 236 239 242 247 246 235 215 206 201 202 213 249 256 243 220 217 218 223 222 226 236 246 254 248 239 232 231 228 226 226 230 239 250 256 258 259 269 279
277 277 276 275 274 273 273 275 276 275 272 271 270 268 264 260 257 254 248 243 240 239 237 236 239 243 244 243 243 243 243 244 237 227 210 205 204 207 211 221 223 220 206 208 212 217 220 228 235 239 240 246 253 254 248 233 224 223 229 242 250 250 232 222 217 215 216 222 228 236 246 251 249 243 236 235 231 227 225 233 246 255 259 247 237 238
272 273 273 273 273 273 273 274 274 273 271 271 270 268 264 258 253 248 245 242 238 233 228 231 238 244 247 245 242 239 237 237 232 223 211 205 204 205 211 217 219 216 206 207 211 215 217 222 228 232 233 237 246 254 256 249 241 235 237 244 257 269 272 246 222 200 207 222 231 236 239 245 247 246 248 250 249 246 244 244 252 258 261 246 229 221
268 269 270 270 269 269 270 271 271 270 270 269 267 263 257 249 243 241 244 245 242 235 227 227 233 240 247 247 244 238 232 228 222 216 211 205 204 205 210 214 214 210 202 204 210 215 216 219 224 229 229 228 236 246 255 255 250 243 239 238 245 258 271 248 210 180 199 216 222 224 226 235 245 254 261 267 269 268 265 265 265 265 265 255 239 228
263 264 265 264 264 263 264 264 264 265 266 265 263 260 253 243 240 240 244 246 246 242 237 235 237 241 245 247 246 243 235 221 212 209 210 206 205 205 208 210 210 206 200 203 207 211 212 219 223 225 221 222 231 241 249 252 251 246 238 230 229 233 245 243 213 182 197 216 220 222 225 239 256 268 273 273 272 270 265 262 261 262 262 255 244 235
260 260 260 259 258 257 256 257 258 259 259 258 258 256 251 246 245 245 245 247 249 249 247 243 242 242 243 243 244 244 238 218 206 206 213 211 209 208 207 207 206 204 203 206 207 206 206 215 219 217 208 213 225 234 242 248 251 251 245 235 232 235 241 244 236 223 223 236 242 242 240 249 265 275 277 273 268 263 258 257 257 258 258 252 244 239
258 258 258 258 259 259 258 257 257 257 256 256 255 254 253 251 250 248 246 248 250 251 249 244 241 241 243 242 240 238 233 218 207 204 207 210 209 207 206 205 204 202 203 209 211 211 211 213 211 203 194 211 225 232 235 239 246 251 252 243 239 241 246 246 241 235 236 248 256 259 254 253 259 266 271 272 271 267 258 250 247 248 251 248 243 240
261 261 262 265 267 268 267 266 264 262 261 260 259 257 255 254 252 251 249 248 248 249 248 242 239 239 242 242 239 233 228 221 214 207 203 203 202 201 201 203 203 203 203 207 210 215 219 217 208 198 196 215 231 237 235 231 234 240 247 243 240 241 247 245 239 231 227 242 254 261 263 261 260 263 268 272 275 273 265 253 243 237 237 238 240 241
265 266 269 272 274 274 273 271 269 268 267 266 263 261 257 254 252 250 250 247 246 247 247 242 240 239 242 242 239 233 225 220 216 210 202 197 194 193 191 192 195 198 202 207 210 215 220 218 212 207 205 217 232 242 242 230 225 226 232 230 234 241 250 250 245 237 231 241 247 251 253 255 260 266 275 280 281 279 275 266 253 240 232 232 234 239
266 269 271 273 273 273 272 271 270 269 268 266 264 262 258 254 250 247 248 246 246 245 244 241 240 240 242 242 239 233 223 218 215 211 204 194 188 185 184 182 182 184 191 200 207 214 223 226 223 217 213 217 229 242 249 238 225 216 214 218 227 242 255 259 257 250 245 246 244 240 234 239 246 254 268 279 282 282 282 278 268 254 238 231 231 236
264 266 267 267 267 267 267 267 266 265 263 262 262 261 260 254 248 243 244 246 246 245 243 240 239 240 241 241 237 230 220 217 214 211 206 192 184 179 180 178 176 176 179 188 195 204 226 249 244 233 222 219 222 230 244 243 234 221 219 224 229 238 254 261 261 255 248 248 243 234 222 225 223 219 225 266 279 283 284 282 276 265 247 236 235 239
261 262 262 261 260 260 260 259 259 259 259 261 262 263 263 258 252 247 244 244 244 244 243 240 238 238 238 238 235 228 219 214 212 211 207 191 180 177 179 179 177 178 182 191 195 200 207 241 258 252 236 220 215 214 224 230 231 231 239 237 231 231 243 254 256 254 251 248 239 220 201 210 210 207 209 254 276 284 285 283 279 270 254 243 239 244